Flag for Mauritania Weather past 2 weeks in Nouadhibou, Mauritania

Now
90 °F

Scattered clouds.


Feels Like: 93 °F
Forecast: N/A
Wind: 14 mph from Northwest

Location: Nouadhibou Airport

Current Time: Aug 22, 2014 at 2:39:40 PM

Latest Report: Aug 22, 2014 at 2:00 PM


Visibility: 4 mi

Pressure: 29.83 "Hg

Humidity: 49%

Dew point: 68 °F

Location of NouadhibouLocation

Historic Weather in Nouadhibou — Graph

°F

Nouadhibou temperature yesterday

Maximum temperature yesterday: 86 °F (at 12:00 PM)
Minimum temperature yesterday: 73 °F (at 12:00 AM)
Average temperature yesterday: 78 °F

Past Weeks' High & Low Weather Summary

 TemperatureHumidityPressure
High95 °F (Aug 22, 1:00 PM)94% (Aug 11, 11:00 PM)30.01 "Hg (Aug 11, 11:00 PM)
Low68 °F (Aug 11, 3:00 AM)41% (Aug 22, 1:00 PM)29.74 "Hg (Aug 7, 5:00 PM)
Average73 °F78%29.87 "Hg
* Reported Aug 7 1:00 PM — Aug 22 1:00 PM, Nouadhibou, Weather by CustomWeather, © 2014

Note: Actual official high and low records may vary slightly from our data, if they occured in-between our weather recording intervals... More about our weather records

Advertising

Nouadhibou weather history for previous 24 hours

 ConditionsComfort  
Time TempWeatherWind HumidityBarometerVisibility
1:00 PM
Aug 22
95 °FScattered clouds.15 mph41%29.86 "Hg5 mi
12:00 PM90 °FScattered clouds.9 mph49%29.89 "Hg5 mi
11:00 AM88 °FPassing clouds.7 mph52%29.89 "Hg5 mi
10:00 AM84 °FPassing clouds.13 mph58%29.89 "Hg5 mi
9:00 AM82 °FPassing clouds.9 mph58%29.89 "Hg5 mi
8:00 AM77 °FClear.13 mph69%29.86 "Hg5 mi
7:00 AM73 °FClear.7 mph78%29.86 "Hg5 mi
6:00 AM73 °FClear.8 mph78%29.86 "Hg5 mi
5:00 AM73 °FClear.7 mph78%29.83 "Hg5 mi
4:00 AM75 °FClear.5 mph69%29.83 "Hg5 mi
3:00 AM75 °FClear.7 mph74%29.86 "Hg5 mi
2:00 AM73 °FClear.12 mph83%29.86 "Hg5 mi
1:00 AM73 °FClear.13 mph83%29.89 "Hg5 mi
12:00 AM73 °FClear.10 mph83%29.89 "Hg5 mi
11:00 PM
Aug 21
73 °FClear.14 mph83%29.92 "Hg5 mi
10:00 PM73 °FClear.14 mph83%29.89 "Hg5 mi
9:00 PM73 °FClear.14 mph83%29.89 "Hg5 mi
8:00 PM75 °FClear.15 mph78%29.86 "Hg5 mi
7:00 PM77 °FClear.16 mph74%29.86 "Hg5 mi
6:00 PM79 °FScattered clouds.14 mph70%29.86 "Hg5 mi
5:00 PM84 °FScattered clouds.16 mph58%29.86 "Hg5 mi
4:00 PM86 °FScattered clouds.15 mph55%29.86 "Hg5 mi
3:00 PM84 °FClear.16 mph58%29.89 "Hg5 mi
2:00 PM84 °FClear.17 mph58%29.89 "Hg5 mi
Weather by CustomWeather, © 2014

See weather overviewHow to use our weather pages